Regional Weather Roundup
Issued by NWS Portland, ME

Current Version | Previous Version | Text Only | Print | Product List | Glossary Off
Versions: 1 2 3 4 5 6 7 8 9 10 11 12 13 14 15 16 17 18 19 20 21 22 23 24 25 26 27 28 29 30 31 32 33 34 35 36 37 38 39 40 41 42 43 44 45 46 47 48 49 50
000 ASUS41 KGYX 200205 RWRGYX WEATHER ROUNDUP FOR MAINE AND NEW HAMPSHIRE NATIONAL WEATHER SERVICE GRAY ME 1000 PM EDT SUN AUG 19 2018 MEZ002-005-006-010-012-015-018-020-021-024-026-027-029-200300- MAINE CITY SKY/WX TMP DP RH WIND PRES REMARKS PORTLAND CLOUDY 66 60 81 E7 30.14S SANFORD CLOUDY 59 58 96 CALM 30.15R BAR HARBOR FAIR 60 58 92 CALM 30.15S WISCASSET CLOUDY 64 61 90 CALM 30.16R ROCKLAND CLOUDY 65 59 81 VRB3 30.14S FRYEBURG FAIR 57 56 96 CALM 30.16R LEWISTONAUBURN MOCLDY 64 60 87 CALM 30.16R AUGUSTA MOCLDY 66 57 72 CALM 30.16R WATERVILLE FAIR 63 57 81 CALM 30.14R BANGOR FAIR 62 57 83 CALM 30.16R GREENVILLE NOT AVBL MILLINOCKET FAIR 59 56 89 CALM 30.18S HOULTON FAIR 62 51 67 E8 30.17S PRESQUE ISLE FAIR 58 56 93 CALM 30.19R FRENCHVILLE FAIR 67 53 61 S5 30.17S CARIBOU FAIR 61 56 83 CALM 30.18R $$ NHZ002-005-008-009-011-012-014-200300- NEW HAMPSHIRE CITY SKY/WX TMP DP RH WIND PRES REMARKS PORTSMOUTH CLOUDY 66 59 77 NE5 30.12R ROCHESTER MOCLDY 61 60 97 NW6 30.14S NASHUA FAIR 63 62 97 W3 30.14S MANCHESTER MOCLDY 66 60 81 CALM 30.12S CONCORD MOCLDY 62 60 93 CALM 30.14S LACONIA FAIR 62 59 90 CALM 30.16R PLYMOUTH CLOUDY 63 60 90 CALM 30.15R BERLIN FAIR 57 56 96 CALM 30.17R WHITEFIELD FAIR 57 55 93 CALM 30.15S JAFFREY FAIR 60 59 96 CALM 30.16F KEENE FAIR N/A N/A N/A CALM 30.14S LEBANON FAIR 63 58 83 CALM 30.14R MT WASHINGTON PTCLDY 45 39 81 E8 N/A $$ VTZ005-007-008-200300- VERMONT CITY SKY/WX TMP DP RH WIND PRES REMARKS ST JOHNSBURY N/A 64 62 93 MISG 30.12R MONTPELIER FAIR 63 60 90 CALM 30.18R BURLINGTON FAIR 69 62 78 E3 30.09R $$ MAZ007-012-024-CTZ003-RIZ002-NYZ038-NYZ072-200300- SOUTHERN NEW ENGLAND AND NY CITY SKY/WX TMP DP RH WIND PRES REMARKS BOSTON CLOUDY 69 62 78 NE14 30.10S WORCESTER FAIR 61 58 90 NE8 30.13S NANTUCKET LGT RAIN 66 66 100 N14 30.04R FOG PROVIDENCE CLOUDY 67 61 81 N10 30.09F HARTFORD MOCLDY 68 57 68 NE7 30.11R ALBANY CLOUDY 72 58 61 CALM 30.10R NEW YORK CITY CLOUDY 73 65 75 SE7 30.07R $$ ANZ081-ANZ082-ANZ150-NHZ014-MEZ023>029-200300- COASTAL MARINE OBSERVATIONS STATION/POSITION TIME TEMP WIND PRES WAVE AIR SEA DIR/SP/G HT/PER (UTC) (F) (DEG/KT/KT) (MB) (FT/S) MOUNT DESERT ROC 0100 58 40/ 11/ 11 1020.2R MATINICUS ROCK 0100 62 60/ 17/ 17 1019.8R ISLE OF SHOALS 0100 67 60/ 13/ 15 1019.2R JEFFREYS LEDGE 0106 69 N/A 5/ 7 $$ .............KEY.............. WCI - WIND CHILL TC - TEMPERATURE IN CELSIUS VSB - VISIBILITY IN MILES HX - HEAT INDEX FAIR- INDICATES FEW OR NO CLOUDS BELOW 12,000 FT, WITH NO SIGNIFICANT WEATHER AND/OR OBSTRUCTIONS TO VISIBILITY.

USA.gov is the U.S. government's official web portal to all federal, state and local government web resources and services.